Starlink 36916

operational
NORAD ID: 68022 Int'l Des: 2026-040 Owner: SPXS Country: US Constellation: starlink
LEOCIRCULARRETROGRADE

Über Starlink 36916

Beschreibung wird geladen...

Live-Position

3D-Globus wird geladen...

Nächste Überflüge

Höhenverlauf

Altitude vs Time

uPlot chart will show altitude changes over time

Zweizeiliger Elementsatz

1 68022C 26040H 26061.10604167 .00612890 00000+0 66877-3 0 612
2 68022 97.2861 8.4895 0009986 258.2492 215.4398 16.09077963 12
Epoch: 2. März 2026 • Age: 27 hours

Aktueller Status

Höhe 266.2 km
Geschwindigkeit 7.75 km/s
Subsatellitenpunkt -68.12°S, 179.9°E
Startdatum 1. März 2026
Alter 1 days
Typ internet

Technische Details

Klassifizierung Payload
Masse 575.00 kg
Trockenmasse 530.00 kg
Gesamtmasse 575.00 kg
Länge 0.30 m
Durchmesser 4.10 m
Spannweite 29.00 m
Form Box + pan
Hersteller SPXS
Bus-Typ Starlink V2MO
Phasenstatus In Orbit
Besitzer/Staat SPXS/US

Große Konstellationen

Loading constellations...